Location: Brede
(50.9167°N, 0.6000°E)
Time: 09:54:00
(UTC+00:00)

X-37B - Visible Passes

Search period start: 27 October 2020 00:00
Search period end: 06 November 2020 00:00
Orbit: 382 x 392 km, 45.0° (Epoch: 15 October)

Date Brightness Start Highest point End Pass type
(mag) Time Alt. Az. Time Alt. Az. Time Alt. Az.
01 Nov 3.8 06:00:46 10° SSE 06:01:32 11° SSE 06:02:17 10° SE visible
03 Nov 3.4 05:38:46 10° SSW 05:40:43 15° SSE 05:42:39 10° ESE visible
04 Nov 3.6 04:41:42 10° SSE 04:42:25 11° SSE 04:43:08 10° SE visible
04 Nov 2.7 06:15:40 10° SW 06:18:20 24° S 06:21:00 10° ESE visible
05 Nov 2.8 05:17:58 12° SSW 05:19:57 20° SSE 05:22:21 10° ESE visible
